Bucharest, Romania

11:49 PM EEST on June 22, 2017 (GMT +0300)
Baneasa

Weather History for LRBS - April, 2013

Change the Weather History Date:

Saturday, April 27, 2013

  Actual Average Record
Temperature  
Mean Temperature 66 °F -  
Max Temperature 86 °F 73 °F 86 °F (2013)
Min Temperature 46 °F 50 °F 37 °F (2016)
Cooling Degree Days 1    
Growing Degree Days 16 (Base 50)    
Moisture  
Dew Point 50 °F    
Average Humidity 54    
Maximum Humidity 100    
Minimum Humidity 20    
Precipitation  
Precipitation 0.00 in 0.09 in - ()
Sea Level Pressure  
Sea Level Pressure 29.89 in    
Wind  
Wind Speed 2 mph ()    
Max Wind Speed 9 mph    
Max Gust Speed -    
Visibility 6.0 miles    
Events      
Averages and records for this station are not official NWS values.
T = Trace of Precipitation, MM = Missing Value Source: Averaged Metar Reports

Daily Weather History Graph

Daily Weather History Graph

Search for Another Location

Airport or City:

Trip Planner

Search our weather history database for the weather conditions in past years. The results will help you decide how hot, cold, wet, or windy it might be!

Date:

Astronomy

Apr. 27, 2013 Rise Set
Actual Time 6:12 AM EEST 8:14 PM EEST
Civil Twilight 5:40 AM EEST 8:46 PM EEST
Nautical Twilight 5:01 AM EEST 9:25 PM EEST
Astronomical Twilight 4:19 AM EEST 10:08 PM EEST
Moon 10:27 PM EEST (4/27) 7:10 AM EEST (4/27)
Length of Visible Light 15h 06m
Length of Day
14h 02m
Waning Gibbous, 97% of the Moon is Illuminated
Apr 27
Waning Gibbous
May 2
Last Quarter
May 10
New
May 18
First Quarter
May 25
Full

Hourly Weather History & Observations

Time (EEST) Temp. Dew Point Humidity Pressure Visibility Wind Dir Wind Speed Gust Speed Precip Events Conditions
12:00 AM 52 °F 50 °F 91% 29.97 in 6 mi ENE 2.2 mph - -  
12:00 AM 60.8 °F 50.0 °F 68% 29.95 in - Calm Calm - N/A   Clear
12:30 AM 60.8 °F 50.0 °F 68% 29.95 in - North 2.3 mph - N/A   Clear
1:00 AM 51 °F 51 °F 98% 29.97 in 6 mi Calm Calm - -  
1:00 AM 60.8 °F 50.0 °F 68% 29.95 in - North 1.2 mph - N/A   Clear
1:30 AM 59.0 °F 50.0 °F 72% 29.95 in - ENE 3.5 mph - N/A   Clear
2:00 AM 50 °F 50 °F 98% 29.95 in 6 mi Calm Calm - -  
2:00 AM 59.0 °F 50.0 °F 72% 29.95 in - Calm Calm - N/A   Clear
2:30 AM 57.2 °F 50.0 °F 77% 29.95 in - NE 3.5 mph - N/A   Clear
3:00 AM 50 °F 49 °F 95% 29.94 in 6 mi North 2.2 mph - -  
3:00 AM 57.2 °F 50.0 °F 77% 29.92 in - Variable 1.2 mph - N/A   Clear
3:30 AM 55.4 °F 50.0 °F 82% 29.92 in - Calm Calm - N/A   Clear
4:00 AM 49 °F 49 °F 98% 29.94 in 6 mi Calm Calm - -  
4:00 AM 55.4 °F 48.2 °F 77% 29.92 in - Variable 1.2 mph - N/A   Clear
4:30 AM 55.4 °F 48.2 °F 77% 29.92 in - North 1.2 mph - N/A   Clear
5:00 AM 48 °F 47 °F 97% 29.93 in 6 mi NE 2.2 mph - -  
5:00 AM 53.6 °F 48.2 °F 82% 29.92 in - Calm Calm - N/A   Clear
5:30 AM 53.6 °F 48.2 °F 82% 29.92 in - Calm Calm - N/A   Clear
6:00 AM 46 °F 46 °F 100% 29.93 in 6 mi North 2.2 mph - -  
6:00 AM 53.6 °F 48.2 °F 82% 29.92 in - North 3.5 mph - N/A   Clear
6:30 AM 53.6 °F 48.2 °F 82% 29.92 in - Calm Calm - N/A   Clear
7:00 AM 47 °F 47 °F 100% 29.93 in 6 mi Calm Calm - -  
7:00 AM 55.4 °F 48.2 °F 77% 29.92 in - Variable 1.2 mph - N/A   Clear
7:30 AM 55.4 °F 50.0 °F 82% 29.92 in - Variable 1.2 mph - N/A   Clear
8:00 AM 54 °F 53 °F 95% 29.93 in 6 mi NE 2.2 mph - -  
8:00 AM 59.0 °F 51.8 °F 77% 29.92 in - Variable 2.3 mph - N/A   Clear
8:30 AM 60.8 °F 50.0 °F 68% 29.92 in - Variable 2.3 mph - N/A   Clear
9:00 AM 61 °F 52 °F 63% 29.92 in 6 mi NNE 2.2 mph - -  
9:00 AM 64.4 °F 51.8 °F 64% 29.92 in - East 1.2 mph - N/A   Clear
9:30 AM 68.0 °F 51.8 °F 56% 29.92 in - Variable 1.2 mph - N/A   Clear
10:00 AM 68 °F 53 °F 49% 29.92 in 6 mi Calm Calm - -  
10:00 AM 69.8 °F 51.8 °F 53% 29.92 in - Variable 2.3 mph - N/A   Clear
10:30 AM 73.4 °F 50.0 °F 44% 29.92 in - Variable 2.3 mph - N/A   Clear
11:00 AM 72 °F 52 °F 39% 29.91 in 6 mi South 2.2 mph - -  
11:00 AM 75.2 °F 50.0 °F 41% 29.92 in - NE 2.3 mph - N/A   Clear
11:30 AM 77.0 °F 50.0 °F 39% 29.92 in - Variable 2.3 mph - N/A   Clear
12:00 PM 76 °F 52 °F 33% 29.90 in 6 mi SSW 2.2 mph - -  
12:00 PM 78.8 °F 48.2 °F 34% 29.89 in - Variable 1.2 mph - N/A   Clear
12:30 PM 80.6 °F 48.2 °F 32% 29.89 in - Variable 2.3 mph - N/A   Clear
1:00 PM 80.6 °F 46.4 °F 30% 29.89 in - SSE 3.5 mph - N/A   Clear
1:30 PM 82.4 °F 50.0 °F 32% 29.89 in - Variable 3.5 mph - N/A   Clear
2:00 PM 83 °F 52 °F 24% 29.88 in 6 mi South 2.2 mph - -  
2:00 PM 84.2 °F 50.0 °F 30% 29.89 in - SSE 4.6 mph - N/A   Clear
2:30 PM 84.2 °F 46.4 °F 27% 29.89 in - SSW 5.8 mph - N/A   Clear
3:00 PM 85 °F 52 °F 22% 29.86 in 6 mi SSW 2.2 mph - -  
3:00 PM 86.0 °F 50.0 °F 29% 29.86 in - SW 5.8 mph - N/A   Clear
3:30 PM 86.0 °F 50.0 °F 29% 29.86 in - SW 6.9 mph - N/A   Clear
4:00 PM 86 °F 53 °F 22% 29.84 in 6 mi SSW 4.5 mph - -  
4:00 PM 86.0 °F 46.4 °F 25% 29.86 in - South 5.8 mph - N/A   Clear
4:30 PM 86.0 °F 48.2 °F 27% 29.86 in - SSW 5.8 mph - N/A   Clear
5:00 PM 85 °F 51 °F 21% 29.83 in 6 mi South 6.7 mph - -  
5:00 PM 86.0 °F 48.2 °F 27% 29.83 in - SW 9.2 mph - N/A   Clear
5:30 PM 86.0 °F 46.4 °F 25% 29.83 in - South 5.8 mph - N/A   Clear
6:00 PM 85 °F 50 °F 20% 29.82 in 6 mi South 6.7 mph - -  
6:00 PM 86.0 °F 44.6 °F 23% 29.83 in - South 5.8 mph - N/A   Clear
6:30 PM 84.2 °F 46.4 °F 27% 29.83 in - South 5.8 mph - N/A   Clear
7:00 PM 84 °F 51 °F 21% 29.81 in 6 mi South 4.5 mph - -  
7:00 PM 84.2 °F 50.0 °F 30% 29.80 in - South 4.6 mph - N/A   Clear
7:30 PM 82.4 °F 50.0 °F 32% 29.80 in - SSE 2.3 mph - N/A   Clear
8:00 PM 79 °F 54 °F 32% 29.81 in 6 mi South 2.2 mph - -   Clear
8:00 PM 82.4 °F 48.2 °F 30% 29.80 in - Variable 2.3 mph - N/A   Clear
8:30 PM 77.0 °F 51.8 °F 41% 29.83 in - NE 2.3 mph - N/A   Clear
9:00 PM 66 °F 58 °F 69% 29.82 in 6 mi NNE 2.2 mph - -   Clear
9:00 PM 73.4 °F 53.6 °F 50% 29.83 in - East 2.3 mph - N/A   Clear
9:30 PM 77.0 °F 50.0 °F 39% 29.83 in - Variable 2.3 mph - N/A   Clear
10:00 PM 64 °F 57 °F 71% 29.83 in 6 mi SE 2.2 mph - -  
10:00 PM 77.0 °F 50.0 °F 39% 29.83 in - SE 3.5 mph - N/A   Clear
10:30 PM 75.2 °F 50.0 °F 41% 29.83 in - SSE 4.6 mph - N/A   Clear
11:00 PM 74 °F 52 °F 36% 29.83 in 6 mi SSE 6.7 mph - -  
11:00 PM 75.2 °F 50.0 °F 41% 29.83 in - South 6.9 mph - N/A   Clear
11:30 PM 73.4 °F 50.0 °F 44% 29.86 in - SSE 5.8 mph - N/A   Clear